TimeMST,TemperatureF,Dew PointF,Humidity,Sea Level PressureIn,VisibilityMPH,Wind Direction,Wind SpeedMPH,Gust SpeedMPH,PrecipitationIn,Events,Conditions,WindDirDegrees,DateUTC
12:53 AM,18.0,14.0,84,30.16,10.0,SW,9.2,-,N/A,,Overcast,220,2013-01-01 07:53:00
1:53 AM,23.0,18.0,81,30.14,10.0,SW,12.7,-,N/A,,Overcast,230,2013-01-01 08:53:00
2:53 AM,25.0,19.0,78,30.13,10.0,SW,18.4,-,N/A,,Overcast,220,2013-01-01 09:53:00
3:53 AM,24.1,18.0,77,30.12,10.0,SW,11.5,-,N/A,,Clear,230,2013-01-01 10:53:00
4:53 AM,24.1,18.0,77,30.10,10.0,SW,12.7,-,N/A,,Overcast,220,2013-01-01 11:53:00
5:53 AM,28.0,21.0,75,30.09,10.0,SW,13.8,-,N/A,,Overcast,230,2013-01-01 12:53:00
6:53 AM,28.9,21.9,75,30.10,10.0,SW,15.0,-,N/A,,Overcast,230,2013-01-01 13:53:00
7:53 AM,30.0,23.0,75,30.15,2.5,WSW,11.5,-,0.00,Snow,Light Snow,240,2013-01-01 14:53:00
7:59 AM,28.4,24.8,86,30.06,1.2,West,10.4,-,0.01,Snow,Light Snow,260,2013-01-01 14:59:00
8:13 AM,28.4,24.8,86,30.06,2.0,WSW,10.4,-,0.02,Snow,Light Snow,250,2013-01-01 15:13:00
8:25 AM,28.4,24.8,86,30.06,1.2,WSW,9.2,-,0.02,Snow,Light Snow,240,2013-01-01 15:25:00
8:36 AM,28.4,24.8,86,30.07,0.5,WSW,8.1,-,0.03,Fog-Snow,Snow,240,2013-01-01 15:36:00
8:53 AM,28.0,26.1,92,30.19,0.5,WSW,6.9,-,0.05,Fog-Snow,Snow,240,2013-01-01 15:53:00
9:03 AM,28.4,26.6,93,30.08,0.5,WSW,8.1,-,0.01,Fog-Snow,Snow,240,2013-01-01 16:03:00
9:27 AM,28.4,26.6,93,30.10,0.5,WSW,9.2,-,0.03,Fog-Snow,Snow,250,2013-01-01 16:27:00
9:37 AM,28.4,26.6,93,30.11,0.2,West,10.4,-,0.05,Fog-Snow,Snow,260,2013-01-01 16:37:00
9:53 AM,28.9,27.0,92,30.23,0.2,WNW,10.4,-,0.08,Fog-Snow,Heavy Snow,290,2013-01-01 16:53:00
10:17 AM,30.2,28.4,93,30.12,0.5,West,9.2,-,0.03,Fog-Snow,Snow,280,2013-01-01 17:17:00
10:29 AM,30.2,28.4,93,30.12,0.8,West,8.1,-,0.04,Snow,Light Snow,280,2013-01-01 17:29:00
10:46 AM,30.2,28.4,93,30.11,1.0,WSW,6.9,-,0.05,Snow,Light Snow,250,2013-01-01 17:46:00
10:53 AM,30.0,28.9,96,30.21,2.5,SSW,4.6,-,0.05,Snow,Light Snow,200,2013-01-01 17:53:00
10:58 AM,30.2,28.4,93,30.10,7.0,SW,8.1,-,0.00,Snow,Light Snow,220,2013-01-01 17:58:00
11:53 AM,30.9,27.0,85,30.24,10.0,West,13.8,-,0.00,,Overcast,270,2013-01-01 18:53:00
12:53 PM,30.0,24.1,79,30.25,10.0,West,16.1,-,N/A,,Mostly Cloudy,270,2013-01-01 19:53:00
1:53 PM,30.9,24.1,76,30.23,10.0,West,16.1,-,N/A,,Overcast,280,2013-01-01 20:53:00
2:53 PM,30.9,23.0,72,30.25,10.0,WNW,16.1,-,N/A,,Overcast,290,2013-01-01 21:53:00
3:53 PM,30.0,21.0,69,30.27,10.0,WSW,11.5,-,N/A,,Overcast,250,2013-01-01 22:53:00
4:53 PM,30.0,19.9,66,30.29,10.0,West,15.0,-,N/A,,Overcast,270,2013-01-01 23:53:00
5:53 PM,28.9,17.1,61,30.29,10.0,West,19.6,24.2,N/A,,Partly Cloudy,280,2013-01-02 00:53:00
6:53 PM,25.0,16.0,69,30.30,10.0,WSW,16.1,-,N/A,,Mostly Cloudy,240,2013-01-02 01:53:00
7:53 PM,23.0,15.1,72,30.29,10.0,SSW,15.0,-,N/A,,Partly Cloudy,210,2013-01-02 02:53:00
8:53 PM,19.9,12.0,71,30.31,10.0,SW,10.4,-,N/A,,Clear,220,2013-01-02 03:53:00
9:53 PM,19.0,10.9,71,30.32,10.0,SW,11.5,-,N/A,,Clear,230,2013-01-02 04:53:00
10:53 PM,17.1,8.1,68,30.32,10.0,WSW,11.5,-,N/A,,Clear,240,2013-01-02 05:53:00
11:53 PM,16.0,7.0,68,30.32,10.0,WSW,11.5,-,N/A,,Clear,250,2013-01-02 06:53:00